Last 24 Hours

Coyote Canyon

10 Minute Data | America/Los_Angeles
as of 5/2/26 11:12 AM PDT
Date & Time Temp (°F) Dew Pt (°F) RH (%) Wind Spd (mph) Wind Dir (°) Wind Gust (mph) Wind Gst Dir (°) Daily Max Temp (°F) Daily Min Temp (°F)
5/2/26 - 1110 73.9 25.2 16 13.5 SE | 124 21.7 ESE | 112 75.6 60.8
5/2/26 - 1100 74.4 24.8 16 13.4 SE | 128 22.6 SE | 127 75.6 60.8
5/2/26 - 1050 74.0 24.7 16 15.3 SE | 140 22.3 SE | 141 75.6 60.8
5/2/26 - 1040 73.3 23.4 15 14.8 SE | 128 25.9 SE | 138 75.6 60.8
5/2/26 - 1030 74.1 24.1 15 13.1 SE | 126 24.6 ESE | 114 75.6 60.8
5/2/26 - 1020 73.7 23.8 15 14.6 ESE | 114 22.9 ESE | 123 74.7 60.8
5/2/26 - 1010 73.1 24.0 16 12.5 ESE | 112 19.3 ESE | 103 73.8 60.8
5/2/26 - 1000 73.0 24.0 16 12.5 ESE | 108 19.6 ESE | 121 73.5 60.8
5/2/26 - 0950 73.0 24.5 16 13.0 ESE | 112 18.4 ESE | 116 73.5 60.8
5/2/26 - 0940 72.4 23.8 16 12.4 ESE | 115 18.8 E | 85 73.5 60.8
5/2/26 - 0930 72.3 23.8 16 10.5 ESE | 108 17.7 ESE | 111 73.3 60.8
5/2/26 - 0920 72.4 24.1 16 9.5 ESE | 105 17.0 ESE | 104 73.3 60.8
5/2/26 - 0910 72.1 23.5 16 8.0 ESE | 112 14.8 E | 101 73.0 60.8
5/2/26 - 0900 71.0 23.5 17 9.0 ESE | 114 16.8 ESE | 123 71.5 60.8
5/2/26 - 0850 70.9 23.8 17 10.5 ESE | 117 14.6 ESE | 122 71.5 60.8
5/2/26 - 0840 71.2 24.7 17 8.2 ESE | 112 12.3 ESE | 120 71.4 60.8
5/2/26 - 0830 70.6 27.0 20 6.8 ESE | 120 12.2 ESE | 120 71.4 60.8
5/2/26 - 0820 69.7 26.5 20 7.7 ESE | 121 11.5 SE | 128 70.3 60.8
5/2/26 - 0810 69.9 27.2 20 5.5 ESE | 112 9.9 E | 81 70.3 60.8
5/2/26 - 0800 69.7 27.9 21 4.0 E | 100 8.7 E | 92 70.3 60.8
5/2/26 - 0750 69.4 28.4 22 4.4 E | 90 8.4 ENE | 75 69.8 60.8
5/2/26 - 0740 68.9 28.2 22 5.2 ENE | 71 8.6 ENE | 76 69.0 60.8
5/2/26 - 0730 68.2 27.7 22 5.9 ENE | 57 9.0 ENE | 65 68.4 60.8
5/2/26 - 0720 66.7 28.3 24 5.9 NE | 53 8.8 ENE | 60 67.7 60.8
5/2/26 - 0710 65.3 28.8 25 6.1 NE | 36 10.4 NNE | 33 65.6 60.8
5/2/26 - 0700 64.5 28.5 26 7.1 NNE | 30 9.9 NNE | 31 65.5 60.8
5/2/26 - 0650 64.8 28.5 25 7.4 NNE | 33 9.9 NNE | 28 65.5 60.8
5/2/26 - 0640 64.9 28.3 25 6.0 NNE | 33 8.4 NE | 40 65.5 60.8
5/2/26 - 0630 64.1 28.5 26 6.2 NNE | 21 8.6 NNE | 24 65.5 60.8
5/2/26 - 0620 64.2 28.8 26 4.8 NNE | 16 7.5 NE | 38 65.5 60.8
5/2/26 - 0610 63.6 28.8 27 6.1 NNE | 30 8.4 NNE | 33 65.5 60.8
5/2/26 - 0600 64.0 28.8 26 8.3 NE | 39 10.1 NE | 39 65.5 60.8
5/2/26 - 0550 63.7 28.5 26 8.8 NE | 40 12.0 NNE | 28 65.5 60.8
5/2/26 - 0540 64.5 27.8 25 8.8 NNE | 32 11.0 NE | 35 65.5 60.8
5/2/26 - 0530 64.8 27.4 24 7.7 NNE | 33 11.0 NE | 38 65.5 60.8
5/2/26 - 0520 64.8 27.2 24 5.7 NE | 41 7.8 NE | 41 65.5 60.8
5/2/26 - 0510 64.8 28.0 25 5.2 NE | 41 7.1 NE | 42 65.5 60.8
5/2/26 - 0500 64.3 28.7 26 5.3 NNE | 13 7.3 N | 11 65.5 60.8
5/2/26 - 0450 64.1 29.0 27 5.0 NE | 48 8.6 NE | 46 65.5 60.8
5/2/26 - 0440 63.4 29.7 28 3.9 NNE | 19 8.8 N | 9 65.5 60.8
5/2/26 - 0430 64.3 29.9 27 3.6 N | 358 8.6 NNE | 12 65.5 60.8
5/2/26 - 0420 64.4 30.3 28 6.7 N | 353 9.5 NNE | 13 65.5 60.8
5/2/26 - 0410 64.9 29.8 27 1.7 NNE | 13 8.8 NE | 37 65.5 60.8
5/2/26 - 0400 64.3 29.8 27 3.9 NNW | 327 8.8 WNW | 293 65.5 60.8
5/2/26 - 0350 63.8 30.2 28 7.0 WNW | 300 10.4 NW | 322 65.5 60.8
5/2/26 - 0340 63.8 29.8 28 8.8 WNW | 298 12.7 W | 269 65.5 60.8
5/2/26 - 0330 64.5 29.6 27 7.9 NW | 310 12.4 NW | 308 65.5 60.8
5/2/26 - 0320 64.5 29.8 27 7.6 WNW | 294 10.0 WNW | 291 65.2 60.8
5/2/26 - 0310 64.5 29.7 27 9.1 WNW | 297 11.2 NW | 304 65.2 60.8
5/2/26 - 0300 64.5 29.4 27 8.0 WNW | 286 10.7 WNW | 284 65.0 60.8
5/2/26 - 0250 64.2 29.9 27 9.8 WNW | 288 11.5 WNW | 290 64.9 60.8
5/2/26 - 0240 64.4 29.5 27 11.2 WNW | 294 15.5 WNW | 286 64.9 60.8
5/2/26 - 0230 62.8 30.6 30 11.7 WNW | 295 14.3 WNW | 292 64.8 60.8
5/2/26 - 0220 62.8 31.0 30 11.5 WNW | 293 13.8 WNW | 291 64.8 60.8
5/2/26 - 0210 63.6 31.0 29 12.8 WNW | 291 15.4 WNW | 287 64.8 60.8
5/2/26 - 0200 64.3 30.6 28 12.4 WNW | 294 14.3 WNW | 296 64.8 60.8
5/2/26 - 0150 62.2 31.5 31 12.1 WNW | 294 13.8 WNW | 297 63.6 60.8
5/2/26 - 0140 62.7 31.3 31 12.7 WNW | 296 14.6 WNW | 290 63.5 60.8
5/2/26 - 0130 62.4 31.5 31 12.8 WNW | 293 14.9 WNW | 287 63.5 60.8
5/2/26 - 0120 62.5 31.8 31 13.0 WNW | 292 14.2 WNW | 292 63.5 60.8
5/2/26 - 0110 61.2 34.6 37 13.8 WNW | 290 16.1 WNW | 284 61.6 60.8
5/2/26 - 0100 61.0 36.5 40 14.3 WNW | 289 16.7 WNW | 288 77.6 52.9
5/2/26 - 0050 60.1 39.1 46 13.0 WNW | 292 15.4 WNW | 283 77.6 52.9
5/2/26 - 0040 59.4 41.8 52 12.8 WNW | 297 14.8 WNW | 290 77.6 52.9
5/2/26 - 0030 59.1 42.4 54 14.3 WNW | 288 17.0 WNW | 284 77.6 52.9
5/2/26 - 0020 59.0 41.7 53 13.7 WNW | 285 16.4 WNW | 286 77.6 52.9
5/2/26 - 0010 59.4 42.1 53 13.5 WNW | 286 15.8 WNW | 282 77.6 52.9
5/2/26 - 0000 59.5 43.6 55 13.1 WNW | 294 14.8 WNW | 297 77.6 52.9
5/1/26 - 2350 59.4 44.5 58 14.5 WNW | 290 17.3 WNW | 283 77.6 52.9
5/1/26 - 2340 59.3 45.2 59 13.2 WNW | 292 15.9 NW | 305 77.6 52.9
5/1/26 - 2330 58.7 46.5 64 13.4 WNW | 289 15.8 WNW | 291 77.6 52.9
5/1/26 - 2320 58.6 47.1 65 13.5 WNW | 285 15.7 WNW | 284 77.6 52.9
5/1/26 - 2310 58.7 47.1 65 14.1 WNW | 286 16.7 WNW | 287 77.6 52.9
5/1/26 - 2300 58.9 47.1 65 14.2 WNW | 286 17.0 WNW | 285 77.6 52.9
5/1/26 - 2250 58.9 46.9 64 13.9 WNW | 289 17.4 WNW | 288 77.6 52.9
5/1/26 - 2240 59.3 46.9 63 14.0 WNW | 287 17.5 WNW | 286 77.6 52.9
5/1/26 - 2230 59.6 46.7 62 13.9 WNW | 290 17.2 WNW | 291 77.6 52.9
5/1/26 - 2220 60.6 46.2 59 14.4 WNW | 290 18.7 WNW | 283 77.6 52.9
5/1/26 - 2210 61.0 45.9 57 15.2 WNW | 291 20.0 WNW | 296 77.6 52.9
5/1/26 - 2200 61.2 46.6 59 15.3 WNW | 292 20.0 WNW | 290 77.6 52.9
5/1/26 - 2150 61.0 47.5 61 13.0 WNW | 294 17.1 WNW | 293 77.6 52.9
5/1/26 - 2140 60.9 47.6 61 15.6 WNW | 292 21.3 WNW | 299 77.6 52.9
5/1/26 - 2130 60.3 48.8 66 16.3 WNW | 294 20.9 WNW | 287 77.6 52.9
5/1/26 - 2120 60.3 49.6 67 15.6 WNW | 295 18.8 WNW | 297 77.6 52.9
5/1/26 - 2110 60.7 49.9 68 12.8 WNW | 288 17.0 WNW | 282 77.6 52.9
5/1/26 - 2100 61.0 50.5 68 12.8 WNW | 291 16.9 WNW | 293 77.6 52.9
5/1/26 - 2050 61.3 51.0 69 12.9 WNW | 288 16.2 WNW | 290 77.6 52.9
5/1/26 - 2040 61.5 50.8 68 12.9 WNW | 285 16.3 WNW | 283 77.6 52.9
5/1/26 - 2030 61.9 51.1 68 14.1 WNW | 283 18.8 WNW | 285 77.6 52.9
5/1/26 - 2020 62.4 51.1 66 12.0 W | 280 15.3 WNW | 283 77.6 52.9
5/1/26 - 2010 62.8 51.5 67 13.4 W | 278 17.2 W | 267 77.6 52.9
5/1/26 - 2000 63.5 51.7 65 14.4 W | 268 18.8 WSW | 249 77.6 52.9
5/1/26 - 1950 64.0 52.2 65 14.6 W | 262 20.1 W | 261 77.6 52.9
5/1/26 - 1940 64.9 52.5 64 14.2 W | 263 19.7 W | 273 77.6 52.9
5/1/26 - 1930 66.2 52.1 60 15.1 W | 266 19.5 W | 263 77.6 52.9
5/1/26 - 1920 67.3 51.5 57 16.2 W | 272 22.6 W | 274 77.6 52.9
5/1/26 - 1910 68.0 51.6 56 18.3 W | 273 24.3 W | 270 77.6 52.9
5/1/26 - 1900 68.6 51.6 54 18.9 W | 276 24.8 W | 268 77.6 52.9
5/1/26 - 1850 69.4 50.2 50 19.1 W | 273 27.1 W | 276 77.6 52.9
5/1/26 - 1840 69.9 49.4 48 18.3 W | 266 26.5 W | 270 77.6 52.9
5/1/26 - 1830 70.8 45.6 41 19.3 W | 259 27.2 WSW | 250 77.6 52.9
5/1/26 - 1820 71.2 45.4 40 19.9 W | 260 27.9 W | 269 77.6 52.9
5/1/26 - 1810 71.8 43.6 36 19.5 W | 261 26.9 W | 264 77.6 52.9
5/1/26 - 1800 72.3 43.7 36 18.2 W | 259 25.6 WSW | 251 77.6 52.9
5/1/26 - 1750 72.4 44.6 37 20.3 W | 260 28.4 WSW | 251 77.6 52.9
5/1/26 - 1740 73.0 42.8 34 18.4 W | 262 29.7 WSW | 252 77.6 52.9
5/1/26 - 1730 73.2 40.8 31 19.8 W | 260 31.5 WSW | 248 77.6 52.9
5/1/26 - 1720 73.6 39.7 29 17.6 W | 272 26.1 WNW | 289 77.6 52.9
5/1/26 - 1710 74.1 40.3 30 16.9 W | 281 26.3 W | 260 77.6 52.9
5/1/26 - 1700 74.1 40.2 29 17.5 W | 269 28.6 WSW | 237 77.6 52.9
5/1/26 - 1650 73.5 41.0 31 16.6 W | 265 24.7 W | 264 77.6 52.9
5/1/26 - 1640 73.9 41.2 31 18.1 WSW | 252 29.0 W | 259 77.6 52.9
5/1/26 - 1630 74.6 41.0 30 16.3 WSW | 257 26.4 WSW | 246 77.6 52.9
5/1/26 - 1620 74.1 41.0 30 17.0 WSW | 257 26.7 WSW | 249 77.6 52.9
5/1/26 - 1610 74.0 40.6 30 16.0 WSW | 254 27.6 W | 260 77.6 52.9
5/1/26 - 1600 73.9 40.2 30 16.2 WNW | 285 29.3 WNW | 292 77.6 52.9
5/1/26 - 1550 74.0 39.8 29 17.8 W | 279 29.2 W | 269 77.6 52.9
5/1/26 - 1540 74.2 39.3 28 17.1 W | 273 26.4 W | 266 77.6 52.9
5/1/26 - 1530 74.2 38.8 28 16.7 WNW | 288 26.6 WNW | 292 77.6 52.9
5/1/26 - 1520 74.4 38.6 27 16.2 W | 274 27.3 W | 279 77.6 52.9
5/1/26 - 1510 75.1 39.0 27 16.2 WNW | 288 25.8 W | 266 77.6 52.9
5/1/26 - 1500 75.5 38.5 26 13.4 WNW | 288 23.0 WNW | 283 77.6 52.9
5/1/26 - 1450 74.8 37.7 26 17.3 W | 278 25.9 W | 271 77.6 52.9
5/1/26 - 1440 75.5 36.7 24 14.2 WSW | 254 22.2 W | 275 77.6 52.9
5/1/26 - 1430 75.4 36.9 25 14.7 WSW | 240 22.8 WSW | 245 77.6 52.9
5/1/26 - 1420 74.5 37.6 26 16.4 WSW | 249 26.8 WSW | 240 77.6 52.9
5/1/26 - 1410 74.1 37.3 26 17.5 WSW | 237 27.6 SW | 221 77.6 52.9
5/1/26 - 1400 74.6 37.4 26 15.2 WSW | 254 25.6 WSW | 238 77.6 52.9
5/1/26 - 1350 74.3 36.6 25 7.1 SW | 225 25.1 WSW | 251 77.6 52.9
5/1/26 - 1340 73.8 33.7 23 5.3 SW | 218 12.3 S | 189 77.6 52.9
5/1/26 - 1330 73.7 32.9 22 7.7 S | 169 16.0 S | 169 77.6 52.9
5/1/26 - 1320 73.4 33.5 23 6.1 SSE | 155 15.6 ESE | 123 77.6 52.9
5/1/26 - 1310 74.1 34.3 23 6.7 ESE | 113 14.4 SE | 139 77.6 52.9
5/1/26 - 1300 74.0 34.8 24 4.3 NNE | 27 9.5 N | 352 77.6 52.9
5/1/26 - 1250 74.5 32.6 21 1.3 NNW | 338 4.9 WSW | 240 77.6 52.9
5/1/26 - 1240 75.3 32.1 20 3.6 SSE | 159 11.8 SSW | 202 77.6 52.9
5/1/26 - 1230 75.6 31.6 20 5.6 SE | 145 14.1 SSE | 147 77.6 52.9
5/1/26 - 1220 76.1 32.0 20 11.9 SE | 126 19.9 SE | 126 77.6 52.9
5/1/26 - 1210 75.4 31.4 20 12.2 SE | 131 23.7 SE | 137 77.6 52.9
5/1/26 - 1200 76.0 31.9 20 11.5 NE | 39 20.3 NNE | 33 77.6 52.9
5/1/26 - 1150 75.4 32.8 21 13.8 NNE | 23 21.5 NE | 49 76.4 52.9
5/1/26 - 1140 75.0 27.9 17 8.8 NNE | 31 21.5 N | 0 75.8 52.9
5/1/26 - 1130 73.9 27.0 17 11.6 NNE | 19 18.6 NNE | 20 75.1 52.9
5/1/26 - 1120 74.0 26.8 17 10.2 NNE | 31 20.3 NNE | 31 75.1 52.9
5/1/26 - 1110 74.4 27.0 17 9.5 NNE | 21 18.4 NE | 53 75.1 52.9
Max 76.1 52.5 69 20.3 - 31.5 - 77.6 60.8
Avg 67.8 36.1 34 11.9 - 17.6 - - -
Min 58.6 23.4 15 1.3 - 4.9 - 61.6 52.9